User: anonymous   Login
Location: Bussy-Saint-Georges
(48.8410°N, 2.7017°E)
Time: 08:46:24
(UTC+00:00)
Language:

Cosmos 2263 Rocket - Orbit

View from above orbital plane
View from above orbital plane
View from above satellite
View from above satellite

Ground track
Ground track

The orbit data is extracted from the following two-line orbital elements,

1 22803U 93059B   22020.15398066 -.00000140  00000-0 -45616-4 0  9998
2 22803  70.9914 313.3576 0017764 342.2750  17.7751 14.16848391465955
Epoch (UTC): 20 January 2022 03:41:43
Eccentricity: 0.0017764
inclination: 70.9914°
perigee height: 823 km
apogee height: 849 km
right ascension of ascending node: 313.3576°
argument of perigee: 342.2750°
revolutions per day: 14.16848391
mean anomaly at epoch: 17.7751°
orbit number at epoch: 46595

The dashed part of the orbit path shows where the satellite is in the earth's shadow,  

DLR